Lone Rock, WI

10:12 PM CST on February 17, 2018 (GMT -0600)
Tri-County Regional

Weather History for KLNR - January, 2012

Change the Weather History Date:

Friday, January 20, 2012

  Actual Average Record
Temperature  
Mean Temperature -2 °F -  
Max Temperature 6 °F 24 °F 48 °F (2018)
Min Temperature -11 °F 8 °F -26 °F (2008)
Degree Days  
Heating Degree Days 68    
Moisture  
Dew Point -5 °F    
Average Humidity 77    
Maximum Humidity 87    
Minimum Humidity 56    
Precipitation  
Precipitation 0.00 in - - ()
Sea Level Pressure  
Sea Level Pressure 30.21 in    
Wind  
Wind Speed 3 mph (ENE)    
Max Wind Speed 8 mph    
Max Gust Speed -    
Visibility 3 miles    
Events Fog , Snow    
Averages and records for this station are not official NWS values.
T = Trace of Precipitation, MM = Missing Value Source: NWS Daily Summary

Daily Weather History Graph

Daily Weather History Graph

Search for Another Location

Airport or City:

Trip Planner

Search our weather history database for the weather conditions in past years. The results will help you decide how hot, cold, wet, or windy it might be!

Date:

Astronomy

Jan. 20, 2012 Rise Set
Actual Time 7:27 AM CST 4:56 PM CST
Civil Twilight 6:55 AM CST 5:27 PM CST
Nautical Twilight 6:21 AM CST 6:02 PM CST
Astronomical Twilight 5:47 AM CST 6:36 PM CST
Moon 5:06 AM CST (1/20) 2:26 PM CST (1/20)
Length of Visible Light 10h 31m
Length of Day
9h 29m
Waning Crescent, 8% of the Moon is Illuminated
Jan 20
Waning Crescent
Jan 23
New
Jan 30
First Quarter
Feb 7
Full
Feb 14
Last Quarter

Hourly Weather History & Observations

Time (CST) Temp. Windchill Dew Point Humidity Pressure Visibility Wind Dir Wind Speed Gust Speed Precip Events Conditions
12:56 AM -11.0 °F - -17.0 °F 75% 30.25 in 7.0 mi Calm Calm - N/A   Clear
1:56 AM -7.1 °F - -15.0 °F 68% 30.25 in 7.0 mi Calm Calm - N/A   Clear
2:56 AM -8.0 °F - -14.1 °F 75% 30.27 in 6.0 mi Calm Calm - N/A   Haze
4:56 AM -2.9 °F - -9.0 °F 75% 30.27 in 7.0 mi Calm Calm - N/A   Overcast
5:56 AM -2.0 °F -12.2 °F -9.9 °F 69% 30.24 in 8.0 mi East 4.6 mph - N/A   Overcast
6:56 AM -0.0 °F -11.6 °F -9.9 °F 63% 30.23 in 8.0 mi ESE 5.8 mph - N/A   Overcast
8:31 AM 1.4 °F -9.9 °F -11.2 °F 56% 30.19 in 1.8 mi East 5.8 mph - 0.00 in Snow Light Snow
8:44 AM 1.4 °F -9.9 °F -9.4 °F 61% 30.19 in 0.8 mi East 5.8 mph - 0.00 in Snow Light Snow
9:30 AM 1.4 °F -12.5 °F -5.8 °F 72% 30.19 in 0.2 mi East 8.1 mph - 0.00 in Snow Heavy Snow
9:45 AM 1.4 °F -9.9 °F -4.0 °F 78% 30.19 in 0.2 mi East 5.8 mph - 0.00 in Snow Heavy Snow
9:56 AM 1.9 °F -9.2 °F -4.0 °F 76% 30.24 in 0.2 mi East 5.8 mph - 0.00 in Snow Heavy Snow
10:04 AM 1.4 °F -8.3 °F -4.0 °F 78% 30.19 in 0.2 mi East 4.6 mph - 0.00 in Snow Heavy Snow
10:12 AM 1.4 °F -8.3 °F -2.2 °F 85% 30.19 in 0.2 mi East 4.6 mph - 0.00 in Snow Heavy Snow
10:47 AM 1.4 °F -11.3 °F -2.2 °F 85% 30.19 in 0.2 mi East 6.9 mph - 0.00 in Snow Heavy Snow
10:56 AM 3.0 °F -9.3 °F -2.9 °F 76% 30.24 in 0.2 mi East 6.9 mph - 0.00 in Snow Heavy Snow
11:48 AM 3.2 °F -4.2 °F -2.2 °F 78% 30.19 in 0.2 mi East 3.5 mph - 0.00 in Snow Heavy Snow
11:56 AM 3.0 °F -8.0 °F -2.0 °F 80% 30.23 in 0.2 mi ENE 5.8 mph - 0.00 in Snow Heavy Snow
12:09 PM 3.2 °F - -2.2 °F 78% 30.18 in 0.2 mi Calm Calm - 0.00 in Snow Heavy Snow
1:06 PM 3.2 °F - -0.4 °F 85% 30.19 in 0.2 mi Calm Calm - 0.00 in Fog , Snow Snow
1:22 PM 3.2 °F - -0.4 °F 85% 30.19 in 0.2 mi Calm Calm - 0.00 in Snow Heavy Snow
1:43 PM 3.2 °F - -0.4 °F 85% 30.17 in 0.2 mi Calm Calm - 0.00 in Snow Heavy Snow
1:56 PM 3.9 °F -3.4 °F -0.9 °F 80% 30.22 in 0.2 mi NE 3.5 mph - 0.00 in Snow Heavy Snow
2:56 PM 5.0 °F -2.1 °F -0.9 °F 76% 30.21 in 0.2 mi ENE 3.5 mph - 0.00 in Snow Heavy Snow
3:20 PM 5.0 °F -2.1 °F -0.4 °F 78% 30.15 in 0.5 mi East 3.5 mph - 0.00 in Snow Snow
3:56 PM 6.1 °F -4.3 °F -0.0 °F 76% 30.18 in 0.5 mi East 5.8 mph - 0.00 in Snow Snow
4:27 PM 6.8 °F -2.0 °F -0.4 °F 72% 30.13 in 1.0 mi ENE 4.6 mph - 0.00 in Snow Light Snow
4:56 PM 5.0 °F -4.1 °F -2.0 °F 73% 30.17 in 2.5 mi ENE 4.6 mph - 0.00 in Snow Light Snow
5:07 PM 3.2 °F -7.8 °F -2.2 °F 78% 30.13 in 4.0 mi North 5.8 mph - 0.00 in   Haze
5:56 PM 1.9 °F -5.6 °F -2.9 °F 80% 30.20 in 7.0 mi NNE 3.5 mph - 0.00 in   Clear
6:56 PM 1.0 °F - -4.0 °F 79% 30.21 in 7.0 mi Calm Calm - N/A   Clear
7:56 PM 1.0 °F - -4.0 °F 79% 30.23 in 7.0 mi Calm Calm - N/A   Overcast
8:56 PM 1.0 °F - -4.0 °F 79% 30.23 in 7.0 mi Calm Calm - N/A   Mostly Cloudy
9:56 PM -4.0 °F -12.4 °F -8.0 °F 83% 30.24 in 6.0 mi WNW 3.5 mph - N/A   Clear
10:56 PM -9.0 °F -18.2 °F -11.9 °F 87% 30.26 in 5.0 mi WNW 3.5 mph - N/A   Clear